Previsão horária em Abbevillers

Hoje, 17 Abril, Sábado

Tempo Temperatura Precipitação Vento Pressão Humidade
00:00 -4°C° 0 mm 2 m/s 715 mmHg 95%
01:00 -4°C° 0 mm 2 m/s 715 mmHg 95%
02:00 -2°C° 0 mm 1 m/s 715 mmHg 96%
03:00 -2°C° 0 mm 1 m/s 715 mmHg 97%
04:00 -2°C° 0 mm 1 m/s 715 mmHg 94%
05:00 -3°C° 0 mm 2 m/s 715 mmHg 92%
06:00 -2°C° 0 mm 2 m/s 715 mmHg 89%
07:00 +1°C° 0 mm 2 m/s 715 mmHg 79%
08:00 +2°C° 0 mm 3 m/s 715 mmHg 69%
09:00 +4°C° 0 mm 4 m/s 715 mmHg 60%
10:00 +5°C° 0 mm 4 m/s 714 mmHg 57%
11:00 +6°C° 0 mm 4 m/s 714 mmHg 54%
12:00 +7°C° 0 mm 5 m/s 714 mmHg 52%
13:00 +7°C° 0 mm 5 m/s 714 mmHg 55%
14:00 +7°C° 0 mm 4 m/s 714 mmHg 58%
15:00 +6°C° 0 mm 4 m/s 713 mmHg 60%
16:00 +5°C° 0 mm 4 m/s 713 mmHg 66%
17:00 +4°C° 0 mm 3 m/s 713 mmHg 72%
18:00 +4°C° 0 mm 2 m/s 713 mmHg 77%
19:00 +3°C° 0 mm 2 m/s 713 mmHg 81%
20:00 +3°C° 0 mm 1 m/s 714 mmHg 85%
21:00 +2°C° 0 mm 1 m/s 714 mmHg 89%
22:00 +2°C° 0 mm 1 m/s 714 mmHg 91%
23:00 +1°C° 0 mm 1 m/s 714 mmHg 93%

Amanhã, 18 Abril, Domingo

Tempo Temperatura Precipitação Vento Pressão Humidade
00:00 +1°C° 0 mm 1 m/s 714 mmHg 94%
01:00 +1°C° 0 mm 1 m/s 714 mmHg 95%
02:00 +2°C° 0 mm 1 m/s 713 mmHg 96%
03:00 +2°C° 0 mm 1 m/s 713 mmHg 96%
04:00 +2°C° 0 mm 1 m/s 713 mmHg 95%
05:00 +3°C° 0 mm 1 m/s 714 mmHg 94%
06:00 +3°C° 0 mm 1 m/s 714 mmHg 94%
07:00 +4°C° 0.1 mm 1 m/s 714 mmHg 91%
08:00 +3°C° 0.1 mm 2 m/s 714 mmHg 89%
09:00 +4°C° 0.1 mm 2 m/s 714 mmHg 87%
10:00 +4°C° 0.1 mm 2 m/s 714 mmHg 83%
11:00 +5°C° 0.1 mm 2 m/s 714 mmHg 80%
12:00 +6°C° 0.1 mm 2 m/s 714 mmHg 76%
13:00 +6°C° 0.1 mm 2 m/s 714 mmHg 75%
14:00 +6°C° 0.1 mm 2 m/s 714 mmHg 74%
15:00 +6°C° 0.1 mm 2 m/s 714 mmHg 73%
16:00 +6°C° 0 mm 2 m/s 714 mmHg 77%
17:00 +6°C° 0 mm 1 m/s 714 mmHg 81%
18:00 +5°C° 0 mm 1 m/s 714 mmHg 84%
19:00 +4°C° 0 mm 1 m/s 714 mmHg 87%
20:00 +3°C° 0 mm 1 m/s 714 mmHg 89%
21:00 +2°C° 0 mm 1 m/s 714 mmHg 92%
22:00 +2°C° 0 mm 1 m/s 714 mmHg 92%
23:00 +1°C° 0 mm 1 m/s 714 mmHg 92%

Depois de amanhã, 19 Abril, Segunda-feira

Tempo Temperatura Precipitação Vento Pressão Humidade
00:00 +1°C° 0 mm 1 m/s 714 mmHg 92%
01:00 0°C° 0 mm 0 m/s 713 mmHg 92%
02:00 0°C° 0 mm 0 m/s 713 mmHg 92%
03:00 +1°C° 0 mm 0 m/s 713 mmHg 92%
04:00 +1°C° 0 mm 0 m/s 713 mmHg 91%
05:00 +2°C° 0 mm 0 m/s 713 mmHg 90%
06:00 +3°C° 0 mm 0 m/s 713 mmHg 89%
07:00 +3°C° 0.1 mm 0 m/s 713 mmHg 89%
08:00 +5°C° 0.1 mm 1 m/s 713 mmHg 90%
09:00 +5°C° 0.1 mm 1 m/s 713 mmHg 90%
10:00 +7°C° 0 mm 1 m/s 713 mmHg 82%
11:00 +8°C° 0 mm 1 m/s 713 mmHg 75%
12:00 +8°C° 0 mm 2 m/s 712 mmHg 67%
13:00 +9°C° 0.1 mm 2 m/s 712 mmHg 65%
14:00 +9°C° 0.1 mm 2 m/s 712 mmHg 63%
15:00 +9°C° 0.1 mm 2 m/s 711 mmHg 60%
16:00 +8°C° 0 mm 2 m/s 711 mmHg 67%
17:00 +8°C° 0 mm 1 m/s 711 mmHg 74%
18:00 +6°C° 0 mm 1 m/s 711 mmHg 81%
19:00 +5°C° 0 mm 1 m/s 711 mmHg 84%
20:00 +4°C° 0 mm 1 m/s 711 mmHg 87%
21:00 +3°C° 0 mm 1 m/s 711 mmHg 90%
22:00 +3°C° 0 mm 1 m/s 711 mmHg 90%
23:00 +2°C° 0 mm 1 m/s 711 mmHg 90%

20 Abril, Terça-feira

Tempo Temperatura Precipitação Vento Pressão Humidade
00:00 +2°C° 0 mm 1 m/s 711 mmHg 90%
01:00 +2°C° 0 mm 1 m/s 710 mmHg 91%
02:00 +2°C° 0 mm 1 m/s 710 mmHg 91%
03:00 +1°C° 0 mm 1 m/s 710 mmHg 91%
04:00 +2°C° 0 mm 1 m/s 710 mmHg 88%
05:00 +3°C° 0 mm 1 m/s 710 mmHg 86%
06:00 +4°C° 0 mm 1 m/s 710 mmHg 83%
07:00 +6°C° 0 mm 1 m/s 710 mmHg 74%
08:00 +7°C° 0 mm 2 m/s 710 mmHg 66%
09:00 +10°C° 0 mm 2 m/s 710 mmHg 57%
10:00 +10°C° 0 mm 2 m/s 710 mmHg 54%
11:00 +12°C° 0 mm 2 m/s 710 mmHg 50%
12:00 +13°C° 0 mm 2 m/s 710 mmHg 47%
13:00 +13°C° 0 mm 2 m/s 709 mmHg 48%
14:00 +14°C° 0 mm 2 m/s 709 mmHg 48%
15:00 +14°C° 0 mm 2 m/s 709 mmHg 49%
16:00 +12°C° 0 mm 2 m/s 709 mmHg 58%
17:00 +9°C° 0 mm 2 m/s 709 mmHg 68%
18:00 +9°C° 0 mm 1 m/s 709 mmHg 78%
19:00 +8°C° 0 mm 1 m/s 709 mmHg 82%
20:00 +6°C° 0 mm 1 m/s 710 mmHg 85%
21:00 +5°C° 0 mm 1 m/s 710 mmHg 89%
22:00 +5°C° 0 mm 1 m/s 710 mmHg 89%
23:00 +5°C° 0 mm 1 m/s 710 mmHg 90%

21 Abril, Quarta-feira

Tempo Temperatura Precipitação Vento Pressão Humidade
00:00 +3°C° 0 mm 0 m/s 710 mmHg 90%
01:00 +3°C° 0 mm 0 m/s 710 mmHg 90%
02:00 +3°C° 0 mm 0 m/s 710 mmHg 91%
03:00 +3°C° 0 mm 0 m/s 710 mmHg 91%
04:00 +3°C° 0 mm 0 m/s 710 mmHg 89%
05:00 +4°C° 0 mm 0 m/s 711 mmHg 86%
06:00 +5°C° 0 mm 0 m/s 711 mmHg 84%
07:00 +7°C° 0 mm 0 m/s 711 mmHg 77%
08:00 +10°C° 0 mm 1 m/s 711 mmHg 70%
09:00 +12°C° 0 mm 1 m/s 711 mmHg 63%
10:00 +13°C° 0.2 mm 1 m/s 711 mmHg 60%
11:00 +14°C° 0.2 mm 2 m/s 711 mmHg 57%
12:00 +15°C° 0.2 mm 2 m/s 711 mmHg 54%
13:00 +14°C° 0.4 mm 2 m/s 711 mmHg 62%
14:00 +12°C° 0.4 mm 3 m/s 711 mmHg 69%
15:00 +11°C° 0.4 mm 4 m/s 711 mmHg 77%
16:00 +10°C° 0.4 mm 3 m/s 711 mmHg 82%
17:00 +9°C° 0.4 mm 2 m/s 712 mmHg 87%
18:00 +8°C° 0.4 mm 2 m/s 712 mmHg 92%
19:00 +7°C° 0.1 mm 2 m/s 713 mmHg 93%
20:00 +6°C° 0.1 mm 2 m/s 713 mmHg 94%
21:00 +7°C° 0.1 mm 1 m/s 714 mmHg 95%
22:00 +6°C° 0.1 mm 1 m/s 714 mmHg 95%
23:00 +6°C° 0.1 mm 1 m/s 714 mmHg 94%

22 Abril, Quinta-feira

Tempo Temperatura Precipitação Vento Pressão Humidade
00:00 +5°C° 0.1 mm 1 m/s 714 mmHg 94%
01:00 +5°C° 0 mm 1 m/s 714 mmHg 94%
02:00 +4°C° 0 mm 1 m/s 715 mmHg 94%
03:00 +4°C° 0 mm 1 m/s 715 mmHg 93%
04:00 +4°C° 0 mm 1 m/s 715 mmHg 92%
05:00 +3°C° 0 mm 1 m/s 715 mmHg 91%
06:00 +3°C° 0 mm 1 m/s 716 mmHg 90%
07:00 +5°C° 0 mm 1 m/s 716 mmHg 82%
08:00 +6°C° 0 mm 1 m/s 716 mmHg 74%
09:00 +6°C° 0 mm 2 m/s 717 mmHg 66%
10:00 +7°C° 0 mm 2 m/s 717 mmHg 58%
11:00 +8°C° 0 mm 3 m/s 717 mmHg 50%
12:00 +9°C° 0 mm 3 m/s 717 mmHg 42%
13:00 +8°C° 0 mm 4 m/s 717 mmHg 41%
14:00 +8°C° 0 mm 4 m/s 717 mmHg 41%
15:00 +8°C° 0 mm 4 m/s 717 mmHg 40%
16:00 +8°C° 0 mm 3 m/s 717 mmHg 49%
17:00 +5°C° 0 mm 3 m/s 717 mmHg 57%
18:00 +5°C° 0 mm 2 m/s 718 mmHg 65%
19:00 +4°C° 0 mm 1 m/s 718 mmHg 71%
20:00 +3°C° 0 mm 1 m/s 718 mmHg 77%
21:00 +1°C° 0 mm 1 m/s 718 mmHg 82%
22:00 +1°C° 0 mm 1 m/s 718 mmHg 84%
23:00 +1°C° 0 mm 1 m/s 718 mmHg 85%
Mostrar mais

Necessitamos do seu Consentimento

A Meteoprog e os seus Fornecedores de Serviços podem armazenar e aceder a dados pessoais como cookies, identificadores do dispositivo ou outras tecnologias semelhantes existentes no seu dispositivo e processar estes dados para personalizar conteúdos e anúncios, assim como funcionalidades nas redes sociais e análise de tráfego.

  • Armazenar e/ou aceder a informações no seu dispositivo

    Os cookies, identificadores do dispositivo ou outras informações podem ser armazenados ou acedidos no seu dispositivo, para os fins acima indicados.

  • Anúncios e conteúdos personalizados, medição de anúncios e conteúdos, dados sobre o público-alvo e desenvolvimento de produtos

    Os anúncios e os conteúdos podem ser personalizados com base num perfil. Podem ser adicionados dados adicionais para uma maior personalização dos anúncios e dos conteúdos. A eficácia dos anúncios e dos conteúdos pode ser medida. Podem ser obtidas informações sobre o público que visualizou os anúncios e os conteúdos. Estes dados podem ser usados para desenvolver ou melhorar sistemas, softwares ou a experiência do utilizador.

Ao clicar em "Eu concordo”, permitirá o uso de cookies, identificadores do dispositivo e web beacons mencionados ou outras tecnologias semelhantes. As configurações do navegador do seu dispositivo podem ser alteradas.

Para certos fins, podem ser invocados interesses legítimos ao invés de consentimento. Pode ler mais informação sobre este assunto na nossa Política de Privacidade e Cookies.